Regional Weather Roundup
Issued by NWS

Home | Current Version | Previous Version | Graphics & Text | Print | Product List | Glossary On
Versions: 1 2 3 4 5 6 7 8 9 10 11 12 13 14 15 16 17 18 19 20 21 22 23 24 25 26 27 28
000
ASUS45 KTFX 290310
RWRMT
MONTANA REGIONAL WEATHER ROUNDUP
NATIONAL WEATHER SERVICE GREAT FALLS MT
900 PM MDT THU APR 28 2016

NOTE: "FAIR" INDICATES FEW OR NO CLOUDS BELOW 12000 FEET WITH NO
SIGNIFICANT WEATHER AND/OR OBSTRUCTIONS TO VISIBILITY.

MTZ001>007-043-290400-
WEST OF THE DIVIDE

CITY           SKY/WX    TMP DP  RH WIND       PRES   REMARKS
KALISPELL      CLOUDY    47  30  51 NE7       30.02S
MISSOULA       CLOUDY    47  29  49 E8        30.01R
BUTTE          CLOUDY    34  31  88 NW6       29.99R WCI  29
MULLAN PASS    LGT SNOW  32  30  92 CALM      29.97S FOG
ANACONDA         N/A     37  28  70 NE5       29.99S
DEER LODGE       N/A     39  28  65 NE9       30.01S
EUREKA           N/A     52  30  43 SE3       30.03R
HAMILTON         N/A     41  34  75 NW5       30.00R
LIBBY            N/A     52  30  43 E3        30.02R
PLAINS           N/A     49  35  58 CALM      30.01S
THOMPSON FALLS   N/A     49  34  56 CALM      30.05R
$$

MTZ008-052>055-290400-
SOUTHWEST MONTANA

CITY           SKY/WX    TMP DP  RH WIND       PRES   REMARKS
BOZEMAN        CLOUDY    39  27  62 SE5       30.00R
DILLON         CLOUDY    37  26  64 NE8       29.96R WCI  31
ENNIS          CLOUDY    37  27  65 N15G21    30.01R WCI  28
THREE FORKS      N/A     40  31  70 SE6       30.00S
TWIN BRIDGES     N/A     40  27  60 N13       29.95R
$$

MTZ009-010-012-014-046-048-049-054-290400-
EAST SLOPES AND CENTRAL MONTANA

CITY           SKY/WX    TMP DP  RH WIND       PRES   REMARKS
CUT BANK       CLOUDY    40  35  83 SW5       30.08R
GREAT FALLS    CLOUDY    39  32  76 NE8       30.06S
HELENA         CLOUDY    40  32  73 NW7       30.02R
CHOTEAU          N/A     37  36  93 NW6       30.09S
CONRAD           N/A     40  40 100 E3        30.10S
$$

MTZ011-013-016-021-045-047-050-051-290400-
NORTH CENTRAL MONTANA

CITY           SKY/WX    TMP DP  RH WIND       PRES   REMARKS
HAVRE          MOCLDY    46  37  71 S3        30.10R
LEWISTOWN      CLOUDY    37  31  78 E10       30.08S WCI  30
N BAR RANCH    CLOUDY    34  32  93 CALM      30.11S
CHINOOK          N/A     46  37  71 S3        30.11R
$$

MTZ017>020-022>027-061-062-290400-
NORTHEAST MONTANA

CITY           SKY/WX    TMP DP  RH WIND       PRES   REMARKS
GLASGOW        CLOUDY    44  34  67 SE3       30.13R
JORDAN           N/A     42  34  73 S12       30.12S
SIDNEY         CLOUDY    45  34  65 CALM      30.15S
WOLF POINT     CLOUDY    50  30  46 CALM      30.14R
PLENTYWOOD       N/A     48  18  29 E9        30.16R
POPLAR           N/A     48  28  46 E5        30.15R
SCOBEY           N/A     45  19  35 E7        30.13R
$$

MTZ028>42-056>058-290400-
SOUTHCENTRAL AND SOUTHEAST MONTANA

CITY           SKY/WX    TMP DP  RH WIND       PRES   REMARKS
BAKER          CLOUDY    40  33  76 CALM      30.14S
BILLINGS       CLOUDY    38  34  85 NE6       30.10R
LIVINGSTON     CLOUDY    36  26  67 E13       30.03S WCI  27
MILES CITY     CLOUDY    42  34  73 SE8       30.13S
EKALAKA          N/A     36  32  85 SE3       30.09R
FORSYTH          N/A     41  39  93 E8        30.13R
LAUREL           N/A     37  25  62 N1        30.07R
ROUNDUP          N/A     38  34  85 CALM      30.01R
$$

REGIONAL REPORTS...DAKOTAS

CITY           SKY/WX    TMP DP  RH WIND       PRES   REMARKS
WILLISTON      CLOUDY    50  20  30 E3        30.16R
MINOT          CLOUDY    48  20  32 NE6       30.17R
DICKINSON      CLOUDY    42  28  57 E7        30.12R
BEACH          CLOUDY    41  39  93 SW3       30.17S
CROSBY           N/A     45  16  31 E8        30.20R
TIOGA          MOCLDY    41  23  48 CALM      30.22R
WATFORD CITY   CLOUDY    43  27  52 E3        30.16R
BISMARCK       CLOUDY    48  32  53 NE6       30.15R
GRAND FORKS    MOCLDY    41  31  67 NE5       30.15R
FARGO          PTCLDY    52  27  38 NE8       30.11R
BUFFALO SD       N/A     38  34  85 SW5       30.07R
RAPID CITY     CLOUDY    37  34  89 N3        30.13R
$$

REGIONAL REPORTS...WYOMING/IDAHO/WASHINGTON

CITY           SKY/WX    TMP DP  RH WIND       PRES   REMARKS
GILLETTE       CLOUDY    35  33  92 CALM      30.09R
SHERIDAN       CLOUDY    37  34  89 CALM      30.09R
BUFFALO WY       N/A    N/A N/A N/A MISG      30.09R
CODY           CLOUDY    36  28  75 N9        30.04S WCI  29
YELLOWSTONE LA   N/A     32  22  66 VRB3      29.95R
IDAHO FALLS    CLEAR     47  27  45 N12       29.85R
SALMON         CLOUDY    45  34  65 CALM      29.94R
BOISE          PTCLDY    59  31  34 NW15      29.83R
SPOKANE        MOCLDY    58  31  35 E8        29.93R
$$

REGIONAL REPORTS...ALBERTA

CITY           SKY/WX    TMP DP  RH WIND       PRES   REMARKS
EDMONTON       CLEAR     55  30  38 SE18      30.00F
CALGARY        MOCLDY    45  28  53 S16       30.04F
LETHBRIDGE     MOCLDY    45  34  65 NW6       30.07S
MEDICINE HAT   MOCLDY    50  32  50 E6        30.09S
WATERTON GATE    N/A     39  30  70 N2          N/A
MILK RIVER       N/A     43  34  70 E2          N/A
$$

REGIONAL REPORTS...SASKATCHEWAN

CITY           SKY/WX    TMP DP  RH WIND       PRES   REMARKS
SWIFT CURRENT  PTCLDY    48  19  32 E9        30.12S
REGINA         MOCLDY    50  19  29 E14       30.18R
SASKATOON      MOCLDY    48  23  37 E9        30.19S
CYPRESS HILLS    N/A     39  27  60 SE5         N/A
VAL MARIE        N/A     43  28  56 SE10        N/A
ROCKGLEN         N/A     45  16  31 E7          N/A
ASSINIBOIA       N/A     52  32  46 SE9         N/A
$$




USA.gov is the U.S. government's official web portal to all federal, state and local government web resources and services.